This is the latest recevied weather packets stored in our database for station/object DL4MGC-10. If no packets are shown the sender has not sent any weather packets the latest 10 day(s).
| Time | Temp. | Humidity | Pressure | Rain* | Wind** | Luminosity | Snow |
|---|---|---|---|---|---|---|---|
| 1777556529 | 18.89° C | 32% | 1024.6 hPa | - | - | - | - |
| 1777555629 | 16.11° C | 31% | 1024.8 hPa | - | - | - | - |
| 1777554729 | 17.78° C | 32% | 1024.8 hPa | - | - | - | - |
| 1777553828 | 15° C | 33% | 1025.1 hPa | - | - | - | - |
| 1777552929 | 15° C | 32% | 1025.2 hPa | - | - | - | - |
| 1777552028 | 16.11° C | 34% | 1025.3 hPa | - | - | - | - |
| 1777551128 | 16.67° C | 33% | 1025.2 hPa | - | - | - | - |
| 1777550228 | 15.56° C | 32% | 1025.3 hPa | - | - | - | - |
| 1777549328 | 14.44° C | 31% | 1025.5 hPa | - | - | - | - |
| 1777548428 | 16.67° C | 35% | 1025.5 hPa | - | - | - | - |
| 1777547528 | 15° C | 37% | 1025.6 hPa | - | - | - | - |
| 1777546628 | 16.11° C | 33% | 1025.6 hPa | - | - | - | - |
| 1777545728 | 16.11° C | 38% | 1025.9 hPa | - | - | - | - |
| 1777544827 | 15° C | 38% | 1026 hPa | - | - | - | - |
| 1777543927 | 15.56° C | 38% | 1026 hPa | - | - | - | - |
| 1777543027 | 15.56° C | 40% | 1026.2 hPa | - | - | - | - |
| 1777542126 | 15° C | 39% | 1026 hPa | - | - | - | - |
| 1777541226 | 15° C | 41% | 1026.1 hPa | - | - | - | - |
| 1777540326 | 12.78° C | 43% | 1026.2 hPa | - | - | - | - |
| 1777539426 | 13.89° C | 50% | 1026.2 hPa | - | - | - | - |
| 1777538526 | 11.67° C | 42% | 1026.3 hPa | - | - | - | - |
| 1777537626 | 10° C | 44% | 1026.1 hPa | - | - | - | - |
| 1777536726 | 9.44° C | 43% | 1026.2 hPa | - | - | - | - |
| 1777535826 | 10.56° C | 43% | 1026.1 hPa | - | - | - | - |
| 1777534926 | 9.44° C | 43% | 1026.1 hPa | - | - | - | - |
* Rain since midnight (hover to see other rain measurements)
** Current wind speed in m/s (hover to see current wind gust speed)